Temperature
17 17 17 17 17 17 17 17 17 17 17 18 18 18 18 18 18 17 17 17 17 17 17 17 17 17 17 17 17 17 17 17 17 17 17 18 18 18 18 18 18 18 17
17 17 17 17 17 17 17 17 17 17 17 18 18 18 18 18 18 17 17 17 17 17 17 17 17 17 17 17 17 17 17 17 17 17 17 17 17 17 17 17 17 17 17
17 17 17 17 17 17 17 17 17 17 17 18 18 18 18 18 18 18 17 17 17 17 17 17 17 17 17 17 17 17 17 17 17 17 17 17 17 17 17 17 17 17 17
17 17 17 17 17 17 17 17 17 17 17 18 18 18 18 18 18 18 17 17 17 16 17 17 17 17 17 17 17 17 17 17 17 17 17 17 17 17 17 17 17 17 16
17 17 17 17 17 17 17 17 17 17 18 18 18 18 18 18 18 18 18 18 17 17 16 17 17 17 17 17 17 17 17 17 17 17 17 17 17 16 16 16 16 16 16
18 18 17 17 17 17 17 17 17 17 17 17 18 18 18 18 18 18 18 18 17 17 17 16 17 17 17 17 17 17 17 17 17 17 17 16 16 16 16 16 16 16 16
18 17 17 17 17 17 17 17 17 17 17 17 18 18 18 18 18 18 18 18 18 17 17 17 17 16 17 17 17 17 17 17 17 17 17 16 16 16 16 16 16 16 16
17 17 17 17 17 17 17 17 17 17 17 17 17 17 18 18 17 18 18 17 18 17 17 17 17 17 16 16 17 17 17 17 17 17 17 16 16 16 16 16 16 16 16
17 17 17 17 17 17 17 17 17 17 16 17 17 17 17 18 18 18 18 18 17 18 17 17 17 17 17 16 16 17 17 17 17 17 17 17 17 16 16 16 16 16 16
16 17 17 17 16 16 16 16 16 16 16 16 17 17 17 17 17 18 17 18 18 17 17 17 17 17 17 16 16 16 17 17 17 17 16 16 16 16 16 16 16 16 16
16 16 16 16 16 16 16 16 16 16 16 16 16 16 16 16 17 17 17 17 17 17 17 17 17 17 17 16 16 16 17 17 16 16 16 16 16 16 16 16 16 16 16
16 16 16 16 16 16 16 16 16 16 16 16 16 16 16 16 16 16 16 16 17 17 17 17 17 16 16 16 16 16 16 16 16 16 16 16 16 16 16 16 16 16 16
15 15 15 15 16 16 16 16 16 16 16 16 16 15 15 15 16 16 16 16 16 16 16 16 16 16 16 16 16 16 16 16 16 16 16 16 16 16 16 16 16 16 16
15 15 15 15 15 15 15 15 15 15 15 15 15 15 15 15 15 15 15 15 15 15 15 15 15 16 16 16 16 16 16 16 16 16 16 16 16 15 15 15 15 15 15
14 14 14 15 15 15 15 15 15 15 15 15 15 15 15 15 15 15 15 15 14 15 15 15 15 15 15 15 15 16 15 16 16 16 16 16 15 15 15 15 15 15 15
14 14 14 14 14 14 14 14 14 14 14 15 15 14 14 14 14 14 14 14 14 14 14 14 14 14 14 15 15 15 15 15 15 15 15 15 15 15 15 15 15 15 15
13 14 14 14 14 14 14 14 14 14 14 14 14 14 14 14 14 14 14 14 14 14 14 14 14 14 14 14 14 15 15 15 15 15 15 15 15 15 15 14 14 14 14
13 13 13 13 13 13 13 14 14 14 14 14 14 14 14 14 14 14 14 14 14 13 13 13 13 14 14 14 14 14 14 14 14 15 15 15 15 14 14 14 14 14 14
13 13 13 13 13 13 13 13 13 13 13 13 13 13 13 13 13 13 13 13 13 13 13 13 13 13 13 14 14 14 14 14 14 14 14 14 14 14 14 14 14 14 14
12 12 12 13 13 13 13 13 13 13 13 13 13 13 13 13 13 13 13 13 13 13 13 13 13 13 13 13 13 13 13 13 13 13 13 14 14 14 14 13 13 13 13
12 12 12 12 12 12 12 12 12 13 13 13 13 13 13 13 13 13 13 13 13 13 13 13 13 13 13 13 13 13 13 13 13 13 13 13 13 13 13 13 13 13 13
12 12 12 12 12 12 12 12 12 12 12 12 12 13 13 13 13 13 13 13 13 13 13 13 13 13 13 13 13 13 13 13 13 13 13 12 12 12 12 12 12 12 12
11 11 11 11 11 12 12 12 12 12 12 12 12 12 12 13 13 13 13 13 13 14 13 13 13 13 13 13 13 13 13 13 12 12 12 12 12 12 12 12 12 12 12
11 11 11 11 11 11 11 12 12 11 11 12 12 12 12 12 13 13 13 13 13 13 13 13 13 13 13 13 12 12 12 12 12 12 12 11 11 11 11 11 11 11 11
10 10 10 10 10 11 11 11 11 11 11 11 11 12 12 12 12 12 12 12 13 13 13 13 13 13 13 13 13 12 12 12 12 12 12 11 11 11 11 10 11 11 11
10 9 10 10 10 10 10 11 11 11 11 11 11 11 12 12 12 12 12 12 12 12 12 12 12 12 12 12 12 12 12 12 12 11 11 11 11 11 10 10 10 10 10
Wind_Speed
8 8 8 7 8 8 8 8 8 8 7 7 7 7 6 5 4 3 4 5 2 1 2 3 4 3 3 3 4 4 5 5 6 6 6 6 6 6 6 5 5 4 4
10 8 9 8 8 8 8 8 9 7 7 7 7 7 6 6 5 4 3 6 6 2 1 2 4 4 4 3 4 4 5 5 5 6 6 6 6 5 5 4 4 3 3
12 10 9 8 8 10 10 9 9 8 7 7 8 8 7 6 6 5 4 3 6 7 4 2 2 3 4 4 4 4 5 5 5 5 6 6 6 5 5 4 4 3 3
14 11 9 9 9 9 8 8 8 8 8 8 8 7 7 6 8 6 6 6 5 5 8 5 3 3 3 3 4 4 5 5 5 5 5 6 6 6 5 5 4 4 4
13 11 9 9 11 8 8 8 9 9 8 8 7 7 7 6 7 7 7 6 6 5 5 8 7 5 4 3 3 4 5 5 6 6 6 6 6 6 6 5 5 5 5
12 10 8 10 9 8 8 9 10 8 7 7 8 8 7 7 7 7 7 6 6 7 5 5 7 9 7 5 4 4 4 5 6 6 6 6 6 5 5 5 5 5 5
11 9 8 9 8 8 9 10 9 10 9 8 8 7 8 9 9 7 8 7 8 7 7 8 6 6 8 9 7 5 5 5 5 5 6 6 6 5 5 5 5 6 6
12 10 10 9 9 8 9 9 9 8 8 8 8 7 7 8 8 10 9 8 9 8 9 9 9 8 6 7 9 9 6 5 5 5 5 5 5 5 5 5 5 5 5
12 12 11 10 9 9 9 10 10 10 8 8 8 6 6 7 6 8 11 10 10 8 9 9 10 10 9 7 7 11 10 7 6 6 5 5 5 5 4 4 4 4 4
10 11 11 11 10 9 10 10 10 9 9 8 7 7 7 4 4 4 6 9 9 10 10 8 9 10 10 9 7 6 11 10 8 7 6 6 5 5 4 4 4 4 4
7 9 10 10 11 10 11 11 10 10 9 9 7 7 8 6 7 6 5 6 6 7 8 8 7 8 9 9 8 10 12 12 11 10 8 8 7 6 5 4 4 4 4
4 6 7 8 9 8 10 10 10 11 10 10 9 8 6 6 7 7 7 6 6 5 5 5 5 6 7 8 10 8 12 13 13 12 11 9 8 7 7 6 5 5 5
2 4 4 5 6 7 7 8 9 9 11 10 10 8 7 6 5 5 6 6 5 4 4 5 4 5 6 7 7 7 11 13 14 14 13 11 10 9 8 7 6 6 5
1 2 3 4 4 5 6 7 7 9 9 10 10 10 7 7 6 6 6 5 5 5 5 5 2 3 4 5 3 5 9 13 14 14 14 13 12 11 10 8 7 6 6
3 2 1 2 2 2 3 4 5 7 7 8 8 9 8 6 6 6 5 5 5 5 5 4 3 2 2 3 2 6 8 9 13 14 14 14 13 12 12 10 10 8 7
6 5 3 2 2 1 1 2 3 4 5 6 6 7 7 6 5 5 5 5 4 4 3 3 3 2 2 3 3 5 6 5 9 12 13 13 13 13 12 12 11 11 10
8 7 6 5 4 3 1 0 1 3 4 3 4 5 7 7 6 5 5 5 5 4 3 2 2 3 3 3 3 4 5 6 7 9 9 10 11 12 12 12 12 12 11
9 8 8 7 7 6 5 3 2 1 2 3 3 4 4 4 4 4 4 5 4 4 4 4 3 3 3 2 2 2 3 3 3 6 5 6 7 9 10 10 10 11 11
10 9 9 8 8 7 6 5 4 2 1 1 2 3 4 4 4 4 4 4 4 4 4 3 3 2 2 2 2 2 2 2 3 5 5 5 4 4 4 6 7 8 9
10 10 9 9 8 8 7 6 5 4 3 2 2 1 2 3 3 4 4 4 4 4 4 3 3 3 2 2 2 2 3 3 2 3 3 3 4 3 2 1 3 4 6
11 10 10 10 9 8 9 8 5 5 5 4 4 4 4 5 5 2 1 3 4 4 4 4 4 3 3 2 2 1 3 3 4 2 3 3 3 3 4 3 3 3 2
11 11 11 11 11 9 11 11 7 5 5 5 5 5 4 4 5 4 4 4 2 2 4 4 4 4 3 3 2 2 2 3 3 2 3 5 5 5 7 8 9 8 6
11 11 11 10 11 12 12 11 9 5 6 6 5 4 4 4 3 4 6 7 7 7 4 2 4 4 4 3 2 3 3 3 4 2 2 5 5 6 8 12 14 13 11
10 10 10 10 10 12 14 11 7 6 6 6 5 5 3 3 3 3 5 6 7 7 5 4 6 5 5 3 2 3 5 6 5 3 2 3 4 5 7 12 16 17 16
9 9 9 10 10 11 15 13 8 5 5 6 6 6 4 4 4 2 5 7 8 8 11 13 13 10 10 9 4 2 4 4 4 4 3 3 4 4 6 7 13 19 20
8 8 9 9 10 11 14 14 11 5 5 5 5 6 8 7 5 3 4 6 7 7 7 8 8 8 8 8 6 4 2 2 4 4 3 2 3 3 3 4 6 9 13
Wind_Direction
228 222 220 216 223 219 208 218 223 212 219 219 222 225 217 209 211 194 139 143 166 214 201 173 163 156 159 164 164 160 154 155 155 152 151 147 143 139 138 135 136 134 130
232 230 229 218 222 222 220 218 217 212 218 217 220 223 230 219 218 191 176 158 169 181 211 185 176 173 171 175 177 174 169 169 169 168 167 166 164 160 157 156 157 159 158
238 232 235 228 221 218 218 218 215 217 219 216 220 223 219 222 227 207 183 189 170 171 181 197 195 187 187 190 193 187 181 180 183 183 183 182 183 183 182 185 188 191 197
245 240 237 236 230 223 219 212 219 213 214 218 220 212 212 204 224 215 202 194 187 177 173 177 194 197 204 205 203 201 192 191 195 197 196 194 196 199 202 207 212 218 223
247 240 239 236 228 219 220 219 216 219 220 219 222 216 221 211 213 214 220 206 183 194 183 161 187 198 200 207 209 207 198 202 205 208 207 205 206 210 215 218 224 228 233
246 240 236 236 231 220 219 222 218 219 229 225 225 218 219 219 218 220 226 216 212 201 197 185 193 186 191 199 208 210 205 204 207 209 210 210 209 212 216 224 228 233 238
239 236 235 233 226 220 220 220 219 218 220 222 225 223 222 226 228 213 224 223 219 210 209 204 210 195 182 189 201 205 209 210 211 208 211 211 210 212 218 226 232 238 243
230 229 227 226 223 220 221 218 213 219 215 214 218 222 228 222 223 227 222 228 231 209 222 220 210 206 210 193 170 188 202 208 206 205 204 204 203 205 216 229 238 244 248
230 226 227 226 225 220 219 217 208 212 213 214 221 215 220 229 218 216 221 222 229 229 223 227 226 216 209 212 188 189 197 201 202 206 205 196 194 198 207 222 234 241 243
233 227 224 222 222 220 220 217 209 210 213 213 217 227 237 247 223 218 216 225 226 227 232 225 231 232 220 217 209 179 189 202 207 211 211 204 200 199 205 218 223 226 227
235 229 222 220 221 220 220 213 205 207 211 214 211 213 225 239 243 241 232 219 216 225 231 234 232 235 232 225 218 209 195 206 212 214 216 214 208 205 204 208 215 224 222
234 227 223 219 219 218 217 212 208 211 214 217 215 214 211 215 226 233 238 236 232 222 220 230 238 236 236 236 227 199 199 211 215 217 218 217 212 209 210 211 216 225 224
230 213 207 205 208 210 212 213 212 213 214 215 215 215 216 221 220 223 235 241 242 236 232 227 225 231 236 240 233 198 215 218 220 220 219 218 214 213 216 220 224 229 227
260 189 186 186 194 207 215 218 217 216 215 214 216 214 213 217 218 218 226 226 234 233 230 233 204 217 231 241 231 214 229 215 220 221 221 219 217 216 216 222 226 232 233
35 64 128 154 164 186 210 216 218 219 216 215 217 216 216 214 212 216 217 218 226 232 224 209 198 186 215 232 214 239 243 204 214 221 222 221 219 219 219 220 222 226 228
35 48 61 74 97 122 176 198 205 213 214 216 213 213 210 206 203 204 207 209 216 226 227 195 196 186 204 223 218 247 244 181 212 217 221 222 221 221 221 221 223 226 228
41 45 48 54 57 60 75 127 215 204 204 202 206 207 207 198 191 191 196 200 205 206 217 211 196 200 209 219 202 225 228 222 206 202 216 223 224 225 226 227 229 230 232
41 47 51 54 53 50 48 47 42 168 193 194 198 190 182 180 183 184 187 193 198 197 207 211 195 197 204 207 210 209 211 212 208 160 192 212 222 228 229 231 234 236 237
38 41 44 46 46 44 44 43 46 54 77 170 192 188 176 175 180 181 186 190 193 194 202 201 182 163 189 182 179 184 182 178 182 155 169 187 192 212 225 237 244 246 246
38 38 41 42 41 41 36 34 41 48 62 71 90 136 151 162 171 177 184 187 181 180 181 181 172 161 165 166 187 174 157 142 134 134 127 131 140 151 153 243 262 262 258
38 38 41 43 41 39 32 24 32 47 60 67 70 75 74 69 60 77 172 184 178 174 170 174 165 159 157 158 152 157 147 134 102 84 111 100 102 88 85 75 47 19 325
37 38 39 40 40 37 32 27 19 49 60 71 70 70 84 84 86 91 74 66 57 175 172 165 158 146 131 124 125 148 147 155 123 64 86 77 72 67 52 47 46 48 46
39 38 37 36 38 34 30 31 22 46 59 59 65 75 78 78 98 115 118 122 90 60 37 117 126 116 120 119 133 127 115 101 90 69 90 81 70 66 60 53 53 55 58
38 37 35 35 35 33 26 26 14 51 64 61 57 58 70 85 80 108 122 111 97 80 65 86 95 89 84 96 97 98 110 108 100 75 75 87 79 75 69 60 56 59 61
35 37 36 33 32 31 25 19 5 60 64 63 59 54 46 84 75 47 126 117 107 93 72 71 70 80 69 48 23 128 144 149 121 94 76 98 108 92 76 73 70 69 67
32 36 40 36 34 32 27 21 8 53 64 66 63 63 51 49 55 15 131 128 120 115 116 114 107 115 98 79 34 49 56 103 117 104 77 108 142 135 99 64 64 68 70
Height
1558 1560 1560 1561 1562 1563 1563 1564 1565 1567 1568 1569 1571 1572 1573 1573 1574 1573 1572 1571 1570 1571 1571 1572 1572 1573 1573 1574 1575 1575 1576 1577 1577 1578 1579 1580 1580 1581 1581 1582 1582 1582 1582
1555 1557 1558 1558 1559 1560 1561 1562 1564 1565 1566 1568 1569 1570 1571 1572 1573 1572 1572 1571 1570 1570 1570 1571 1571 1572 1573 1573 1574 1575 1575 1576 1577 1578 1578 1579 1580 1580 1581 1581 1582 1582 1582
1552 1553 1555 1556 1557 1558 1559 1560 1562 1563 1564 1566 1567 1568 1569 1570 1571 1572 1571 1571 1571 1570 1570 1570 1571 1571 1572 1572 1573 1574 1575 1575 1576 1577 1578 1578 1579 1580 1580 1581 1581 1581 1581
1548 1549 1551 1552 1554 1555 1557 1558 1559 1561 1562 1564 1565 1566 1568 1568 1569 1570 1570 1570 1570 1570 1569 1569 1569 1570 1571 1571 1572 1573 1573 1574 1575 1576 1576 1577 1578 1579 1579 1580 1580 1580 1580
1543 1545 1546 1548 1550 1552 1553 1555 1556 1558 1560 1562 1563 1564 1566 1567 1567 1568 1569 1570 1570 1569 1570 1569 1569 1569 1569 1570 1571 1571 1572 1573 1573 1574 1575 1576 1576 1577 1578 1578 1579 1579 1579
1538 1540 1541 1544 1546 1547 1549 1551 1553 1555 1557 1559 1561 1562 1563 1564 1565 1566 1567 1568 1569 1569 1569 1569 1569 1569 1569 1569 1569 1570 1571 1571 1572 1573 1573 1574 1575 1575 1576 1576 1577 1577 1577
1532 1534 1536 1538 1541 1543 1545 1547 1549 1551 1553 1556 1558 1559 1560 1561 1563 1563 1564 1566 1567 1567 1567 1568 1569 1569 1568 1568 1568 1569 1569 1570 1570 1571 1572 1572 1573 1574 1574 1574 1575 1575 1575
1527 1529 1531 1533 1535 1537 1540 1542 1544 1547 1549 1552 1554 1556 1557 1559 1558 1560 1561 1562 1564 1565 1565 1567 1567 1567 1568 1568 1567 1568 1568 1568 1569 1569 1570 1570 1571 1571 1572 1572 1573 1573 1573
1522 1523 1525 1527 1530 1532 1534 1536 1539 1541 1544 1547 1549 1552 1553 1554 1555 1556 1557 1559 1560 1561 1563 1564 1565 1566 1566 1567 1567 1566 1567 1567 1567 1568 1568 1569 1569 1569 1570 1570 1570 1571 1571
1516 1518 1520 1522 1525 1527 1529 1531 1533 1536 1540 1542 1544 1547 1549 1550 1552 1552 1554 1555 1556 1558 1559 1560 1562 1563 1564 1564 1564 1564 1565 1566 1566 1567 1567 1567 1568 1568 1568 1568 1568 1569 1569
1512 1513 1515 1517 1520 1522 1523 1526 1529 1532 1535 1537 1539 1542 1544 1546 1547 1549 1550 1551 1552 1554 1555 1557 1558 1559 1560 1561 1561 1562 1563 1564 1564 1565 1566 1566 1566 1566 1566 1566 1567 1567 1567
1508 1509 1511 1513 1515 1517 1519 1521 1524 1526 1529 1532 1534 1536 1538 1541 1542 1545 1546 1547 1549 1550 1551 1552 1553 1554 1556 1557 1557 1558 1560 1561 1562 1563 1563 1564 1564 1565 1565 1565 1565 1565 1565
1506 1507 1508 1509 1511 1513 1515 1517 1519 1521 1523 1526 1528 1531 1533 1536 1538 1540 1542 1543 1544 1546 1547 1548 1549 1550 1551 1552 1553 1554 1556 1558 1559 1560 1561 1562 1562 1563 1563 1563 1563 1563 1563
1504 1505 1506 1507 1509 1510 1512 1513 1515 1517 1519 1521 1523 1526 1528 1530 1533 1535 1537 1539 1540 1541 1542 1543 1544 1545 1546 1548 1549 1550 1552 1554 1555 1557 1558 1559 1560 1560 1561 1561 1561 1562 1562
1503 1504 1505 1506 1507 1508 1509 1510 1512 1514 1515 1517 1519 1521 1523 1525 1528 1530 1531 1534 1536 1537 1538 1539 1540 1540 1542 1543 1544 1546 1548 1549 1551 1553 1554 1556 1557 1557 1558 1558 1559 1559 1560
1504 1504 1505 1505 1506 1507 1507 1508 1509 1511 1512 1513 1514 1516 1518 1520 1523 1525 1527 1529 1531 1533 1534 1535 1536 1537 1538 1539 1540 1542 1544 1545 1547 1549 1551 1552 1553 1554 1555 1556 1556 1557 1557
1505 1505 1505 1506 1506 1506 1507 1507 1508 1509 1510 1511 1512 1513 1515 1517 1519 1521 1523 1525 1527 1529 1531 1532 1533 1535 1536 1537 1538 1539 1540 1541 1543 1544 1546 1548 1549 1550 1551 1552 1553 1553 1554
1507 1507 1507 1507 1507 1507 1507 1506 1506 1507 1508 1509 1510 1511 1513 1514 1516 1518 1520 1522 1524 1526 1528 1530 1531 1532 1533 1534 1535 1536 1537 1538 1539 1540 1542 1544 1545 1547 1548 1549 1549 1550 1550
1510 1509 1509 1508 1508 1507 1507 1507 1506 1506 1507 1508 1509 1510 1512 1513 1515 1517 1519 1520 1522 1524 1525 1527 1529 1530 1531 1532 1533 1534 1534 1535 1536 1537 1539 1540 1542 1543 1544 1544 1545 1545 1546
1512 1511 1511 1510 1509 1508 1508 1507 1507 1506 1506 1507 1508 1509 1511 1512 1514 1516 1518 1519 1521 1523 1524 1526 1527 1528 1529 1530 1531 1532 1533 1534 1535 1535 1536 1537 1538 1539 1540 1540 1541 1541 1542
1514 1513 1512 1511 1510 1510 1509 1508 1508 1508 1507 1508 1508 1509 1510 1512 1513 1515 1517 1519 1520 1522 1524 1525 1526 1527 1528 1529 1530 1530 1532 1532 1533 1534 1535 1536 1536 1537 1537 1537 1537 1537 1538
1516 1515 1514 1513 1512 1511 1510 1509 1509 1509 1509 1509 1509 1510 1511 1512 1514 1515 1516 1518 1520 1522 1524 1525 1526 1527 1528 1528 1529 1529 1530 1532 1532 1533 1534 1534 1535 1535 1535 1535 1535 1535 1535
1519 1517 1516 1515 1513 1512 1511 1511 1510 1510 1509 1509 1510 1511 1512 1513 1515 1516 1518 1519 1520 1522 1524 1525 1526 1527 1527 1528 1528 1529 1530 1531 1531 1532 1533 1534 1535 1535 1534 1534 1533 1533 1533
1522 1520 1518 1517 1515 1514 1513 1512 1511 1511 1510 1510 1511 1512 1513 1514 1515 1517 1519 1520 1521 1522 1524 1525 1526 1527 1527 1527 1528 1529 1530 1530 1531 1532 1533 1534 1535 1535 1535 1534 1533 1533 1533
1525 1523 1521 1519 1518 1516 1514 1513 1512 1512 1512 1512 1512 1513 1514 1515 1516 1517 1519 1520 1521 1523 1524 1525 1526 1527 1527 1527 1528 1530 1530 1531 1532 1533 1534 1534 1535 1535 1536 1535 1534 1534 1533
1527 1526 1524 1522 1520 1518 1516 1515 1513 1513 1513 1513 1513 1514 1514 1515 1517 1518 1520 1522 1523 1524 1525 1526 1527 1528 1528 1529 1529 1530 1531 1532 1533 1534 1534 1535 1535 1536 1536 1537 1536 1535 1534